Dati Storici

Data ora Umidita' aria (%) Temperatura aria (°C) Rad globale (W/m²) Gonioanemometro (°) Tacoanemometro (m/s) Pioggia (mm)
07-06-2020 13:30 70.1 % 22.442 -70.632 4.785 0 0
07-06-2020 13:20 74.3 % 22.816 -64.714 1.535 0 0
07-06-2020 13:10 74.1 % 22.527 -69.983 2.875 0 0
07-06-2020 13:00 74.7 % 23.057 -73.444 4.599 0 0
07-06-2020 12:50 73 % 23.265 -69.463 3.92 0 0
07-06-2020 12:40 69.2 % 22.698 -74.128 3.277 0 0
07-06-2020 12:30 64.2 % 23.492 -67.149 2.223 0 0
07-06-2020 12:20 62.9 % 23.751 -73.973 4.277 0 0
07-06-2020 12:10 63.5 % 24.005 -70.988 2.083 0 0
07-06-2020 12:00 63.5 % 23.219 -72.475 2.057 0 0
07-06-2020 11:50 63.9 % 23.352 -70.671 2.041 0 0
07-06-2020 11:40 65 % 24.418 -80.07 2.291 0 0
07-06-2020 11:30 64.9 % 23.304 -70.372 2.064 0 0
07-06-2020 11:20 65.4 % 23.777 -71.328 2.146 0 0
07-06-2020 11:10 65.6 % 22.645 -71.92 2.539 0 0
07-06-2020 11:00 66.6 % 23.132 -70.358 2.85 0 0
07-06-2020 10:50 67.8 % 22.76 -63.801 2.374 0 0
07-06-2020 10:40 64.3 % 23.39 -1.759 1.443 0 0
07-06-2020 10:30 64.6 % 23.724 -70.089 2.087 0 0
07-06-2020 10:20 64.5 % 23.653 -40.923 1.93 0 0

I dati sono presentati in modo automatico a scopo informativo. In seguito a verifica i dati possono subire modifiche o essere invalidati e non riportati negli archivi definitivi.